SL-16 DEB, 22602

Orbit data source: Space-Track

SL-16 DEB, 22602 is space debris in LEO originally from a launch on Fri, 26 Mar 1993 UTC launched from the Tyuratam Missile And Space Complex (TTMTR). Debris objects in space refer to the collection of defunct objects orbiting the Earth. Examples of debris include non-operational satellites, rocket bodies, and fragments generated from explosions, collisions, or faulty payload assembly.

Loading next visibility...
Identifier
22602, 1993-016L
Orbit
LEO
Country
Flag of CISCIS
Related business
Manufacturer
Unknown
Mission
Spacecraft
Bus & Motor
Unknown
Mass
Unknown
Launch date (UTC)
1993-03-26 (33 years ago)
Launch vehicle
Unknown
Launch site
Tyuratam Missile And Space Complex (TTMTR)
Object type
Payload
Rocket body
Debris
Shape & HBR
Unknown shape, 0.1 m
Radar Cross Section
Small (<0.1 m²)

Expand to show TLE details & history
Last TLE update: 22 hours ago

TLE from 22 hours ago
0 SL-16 DEB
1 22602U 93016L   26034.91090459  .00000084  00000-0  11746-3 0  9997
2 22602  71.0427 213.6949 0201408 283.4171 147.1168 13.74134133646835
Epoch: 2026-02-03T21:51Z
TLE epoch observation values (Epoch: 2026-02-03T21:51:42.156Z)
Latitude
64.02888°
Longitude
156.23813°
Altitude
1,120.665 km
Speed
7.236 km/s
True Right ascension
17h 12m 59s
True Declination
63° 53' 59"
Sunlit
Object was in daylight at epoch
Visualization orbit readout
Latitude
Unknown
Longitude
Unknown
Altitude
Unknown
Speed
Unknown
Apparent Right ascension
Unknown
Apparent Declination
Unknown
Sunlit
N/A
Visualization observer readout
Local Sidereal Time
21:47:45
Azimuth
Unknown
Elevation
Unknown
Doppler factor
Unknown
Orbital elements
Apogee altitude
1,130.98 km
Perigee altitude
834.472 km
Semi-major axis
7,360.863 km
Eccentricity
0.02014
Inclination
71.0427°
RAAN
213.6949°
Arg. of periapsis
283.4171°
True anomaly
148.3438°
Mean anomaly
147.1168°
Eccentric anomaly
147.73287°
Mean motion
3.43677 °/min
Orbital period
104.75 mins
BSTAR
0.00011746
Loading maneuver chart data...
Computing Atmospheric mass density...
Loading historical data...
Loading historical data...
Loading historical data...
Loading historical data...
Loading historical data...
Loading historical data...
Loading historical data...

Documentation

Showing up to 5 results
|